Tallulah, LA

11:14 AM CDT on October 01, 2016 (GMT -0500)
Vicksburg Tallulah Regional

Weather History for KTVR - December, 2012

Change the Weather History Date:

Saturday, December 8, 2012

  Actual Average Record
Temperature  
Mean Temperature 60 °F 49 °F  
Max Temperature 73 °F 60 °F 82 °F (2007)
Min Temperature 47 °F 39 °F 19 °F (1965)
Degree Days  
Heating Degree Days 5 16  
Month to date heating degree days 22 122  
Since 1 July heating degree days 580 524  
Cooling Degree Days 0 0  
Month to date cooling degree days 9 0  
Year to date cooling degree days 2406 2225  
Growing Degree Days 12 (Base 50)    
Moisture  
Dew Point 57 °F    
Average Humidity 82    
Maximum Humidity 100    
Minimum Humidity 64    
Precipitation  
Precipitation 0.03 in 0.20 in 1.81 in (2009)
Month to date precipitation 0.92 1.60  
Year to date precipitation 47.28 50.73  
Sea Level Pressure  
Sea Level Pressure 29.95 in    
Wind  
Wind Speed 5 mph (SSE)    
Max Wind Speed 12 mph    
Max Gust Speed 15 mph    
Visibility 7 miles    
Events Rain    
T = Trace of Precipitation, MM = Missing Value Source: NWS Daily Summary

Daily Weather History Graph

Daily Weather History Graph

Search for Another Location

Airport or City:

Trip Planner

Search our weather history database for the weather conditions in past years. The results will help you decide how hot, cold, wet, or windy it might be!

Date:

Astronomy

Dec. 08, 2012 Rise Set
Actual Time 6:53 AM CST 4:58 PM CST
Civil Twilight 6:26 AM CST 5:25 PM CST
Nautical Twilight 5:56 AM CST 5:56 PM CST
Astronomical Twilight 5:26 AM CST 6:26 PM CST
Moon 1:33 AM CST (12/8) 1:16 PM CST (12/8)
Length of Visible Light 10h 59m
Length of Day
10h 05m
Waning Crescent, 28% of the Moon is Illuminated
Dec 8
Waning Crescent
Dec 13
New
Dec 19
First Quarter
Dec 28
Full
Jan 4
Last Quarter

Hourly Weather History & Observations

Time (CST) Temp. Dew Point Humidity Pressure Visibility Wind Dir Wind Speed Gust Speed Precip Events Conditions
12:53 AM 52.0 °F 51.1 °F 97% 29.94 in 8.0 mi Calm Calm - N/A   Clear
1:53 AM 52.0 °F 51.1 °F 97% 29.94 in 10.0 mi South 3.5 mph - N/A   Clear
2:53 AM 52.0 °F 51.1 °F 97% 29.95 in 8.0 mi South 3.5 mph - N/A   Clear
3:09 AM 51.8 °F 48.2 °F 88% 29.93 in 1.5 mi Calm Calm - N/A   Clear
3:32 AM 50.0 °F 48.2 °F 94% 29.93 in 2.5 mi Calm Calm - N/A   Clear
3:39 AM 50.0 °F 48.2 °F 94% 29.93 in 5.0 mi ESE 3.5 mph - N/A   Clear
3:53 AM 51.1 °F 50.0 °F 96% 29.95 in 3.0 mi SE 3.5 mph - N/A   Partly Cloudy
4:53 AM 55.0 °F 54.0 °F 96% 29.96 in 4.0 mi Calm Calm - N/A   Mostly Cloudy
5:13 AM 55.4 °F 55.4 °F 100% 29.93 in 2.5 mi ESE 5.8 mph - N/A   Mostly Cloudy
5:53 AM 55.9 °F 55.0 °F 97% 29.96 in 2.5 mi SSE 4.6 mph - N/A   Overcast
6:40 AM 55.4 °F 53.6 °F 94% 29.95 in 1.0 mi SSE 3.5 mph - N/A   Clear
6:53 AM 55.9 °F 55.0 °F 97% 29.97 in 1.5 mi SE 4.6 mph - N/A   Clear
7:14 AM 57.2 °F 55.4 °F 94% 29.95 in 2.5 mi SSE 4.6 mph - N/A   Clear
7:26 AM 57.2 °F 57.2 °F 100% 29.95 in 3.0 mi SSE 4.6 mph - N/A   Partly Cloudy
7:38 AM 57.2 °F 57.2 °F 100% 29.95 in 2.5 mi SSE 5.8 mph - N/A   Scattered Clouds
7:53 AM 57.9 °F 57.9 °F 100% 29.98 in 1.8 mi SSE 4.6 mph - N/A   Mostly Cloudy
8:06 AM 59.0 °F 57.2 °F 94% 29.96 in 2.5 mi SSE 3.5 mph - N/A   Overcast
8:15 AM 59.0 °F 57.2 °F 94% 29.96 in 3.0 mi South 3.5 mph - N/A   Overcast
8:46 AM 60.8 °F 59.0 °F 94% 29.97 in 5.0 mi South 5.8 mph - 0.00 in Rain Light Rain
8:53 AM 60.1 °F 59.0 °F 96% 29.99 in 5.0 mi South 4.6 mph - 0.01 in   Overcast
9:53 AM 63.0 °F 60.1 °F 90% 30.00 in 10.0 mi South 6.9 mph - 0.01 in   Overcast
10:53 AM 66.0 °F 59.0 °F 78% 29.99 in 10.0 mi South 6.9 mph - N/A   Overcast
11:53 AM 69.1 °F 61.0 °F 75% 29.96 in 10.0 mi South 9.2 mph - N/A   Overcast
12:53 PM 72.0 °F 61.0 °F 68% 29.93 in 10.0 mi South 8.1 mph - N/A   Mostly Cloudy
1:35 PM 73.4 °F 60.8 °F 65% 29.90 in 10.0 mi South 8.1 mph - N/A   Overcast
1:50 PM 73.4 °F 60.8 °F 65% 29.89 in 10.0 mi SSE 8.1 mph - N/A   Overcast
1:53 PM 73.0 °F 60.1 °F 64% 29.91 in 10.0 mi South 6.9 mph - N/A   Overcast
2:53 PM 72.0 °F 60.1 °F 66% 29.91 in 10.0 mi South 4.6 mph - N/A   Overcast
3:53 PM 72.0 °F 61.0 °F 68% 29.92 in 10.0 mi SSE 5.8 mph - N/A   Overcast
4:53 PM 69.1 °F 61.0 °F 75% 29.92 in 10.0 mi SE 6.9 mph - N/A   Mostly Cloudy
5:53 PM 66.9 °F 61.0 °F 81% 29.93 in 10.0 mi SE 4.6 mph - 0.00 in   Clear
6:53 PM 66.0 °F 60.1 °F 81% 29.95 in 10.0 mi SSE 4.6 mph - N/A   Partly Cloudy
7:53 PM 64.0 °F 60.1 °F 87% 29.95 in 10.0 mi SE 5.8 mph - N/A   Partly Cloudy
8:53 PM 61.0 °F 59.0 °F 93% 29.96 in 10.0 mi SSE 3.5 mph - N/A   Clear
9:53 PM 61.0 °F 59.0 °F 93% 29.96 in 10.0 mi SSE 5.8 mph - N/A   Clear
10:53 PM 63.0 °F 60.1 °F 90% 29.96 in 10.0 mi SSE 6.9 mph - 0.01 in   Clear
11:53 PM 64.0 °F 60.1 °F 87% 29.95 in 10.0 mi South 8.1 mph - N/A   Mostly Cloudy